Regional Weather Roundup
Issued by NWS Green Bay, WI

Home | Current Version | Previous Version | Text Only | Print | Product List | Glossary On
Versions: 1 2 3 4 5 6 7 8 9 10 11 12 13 14 15 16 17 18 19 20 21 22 23 24 25 26 27 28 29 30 31 32 33 34 35 36 37 38 39 40 41 42 43 44 45 46 47 48 49 50
000
ASUS43 KGRB 301010
RWRGRB

NORTH-CENTRAL AND NORTHEAST WISCONSIN REGIONAL WEATHER ROUNDUP
NATIONAL WEATHER SERVICE GREEN BAY WI
400 AM CST FRI JAN 30 2015

WIZ005-009-010>012-018-019-301100-
NORTH CENTRAL WISCONSIN

CITY           SKY/WX    TMP DP  RH WIND       PRES   REMARKS
IRONWOOD       CLOUDY    12   3  67 N7        30.41F WCI   2
MANITOWISH WTR CLOUDY    10   4  76 NW10      30.40R WCI  -4
ARBOR VITAE    CLOUDY    13   6  73 NW12      30.40R WCI  -1
EAGLE RIVER    CLOUDY    10   2  71 N10       30.39S WCI  -4
LAND O LAKES   CLOUDY    10   4  76 NW9       30.39S WCI  -3
RHINELANDER    CLOUDY    11   2  67 VRB7      30.39S WCI   0
PHILLIPS       CLOUDY    10   3  72 NW5       30.42S WCI   2
ANTIGO         CLOUDY    12   5  73 N10       30.39S WCI  -1
TOMAHAWK       CLOUDY    12   4  70 CALM      30.42S
MERRILL        CLOUDY    14   4  65 N8        30.43R WCI   2
$$

WIZ013-073-301100-
NORTHEAST WISCONSIN

CITY           SKY/WX    TMP DP  RH WIND       PRES   REMARKS
IRON MOUNTAIN  CLOUDY    11   3  70 NW13      30.40R WCI  -4
MARINETTE      CLOUDY    14   1  57 N3        30.44R
OCONTO         CLOUDY    16   4  60 CALM      30.45R
$$

WIZ017-030-035>037-045-301100-
CENTRAL WISCONSIN

CITY           SKY/WX    TMP DP  RH WIND       PRES   REMARKS
MEDFORD        CLOUDY    11   4  75 W6        30.43R WCI   1
WAUSAU         CLOUDY    14   4  64 NW9       30.42R WCI   2
MOSINEE        CLOUDY    14   5  67 NW9       30.44R WCI   2
MARSHFIELD     CLOUDY    13   4  67 NW12      30.45R WCI  -1
WISC RAPIDS    CLOUDY    16   5  62 N8        30.47R WCI   5
STEVENS POINT  CLOUDY    14   3  62 NW6       30.45R WCI   5
WAUPACA        CLOUDY    19   7  58 NW7       30.45R
SHAWANO        CLOUDY    19   7  58 N3        30.45R
CLINTONVILLE   CLOUDY    19   5  53 NW9G18    30.44R WCI   9
$$

WIZ038-039-048-051-301100-
FOX VALLEY

CITY           SKY/WX    TMP DP  RH WIND       PRES   REMARKS
NWS GREEN BAY  CLOUDY    18   7  62 N10       30.44R WCI   6
APPLETON       CLOUDY    18   5  57 N10       30.44R WCI   6
OSHKOSH        CLEAR     17   4  56 NW9       30.43R WCI   6
FOND DU LAC    CLEAR     13   3  64 NW9       30.43R WCI   1
$$

WIZ022-050-052-301100-
EAST CENTRAL WISCONSIN

CITY           SKY/WX    TMP DP  RH WIND       PRES   REMARKS
STURGEON BAY   CLOUDY    14   3  62 N9        30.44R WCI   2
MANITOWOC      CLOUDY    17   7  64 N12G18    30.44R WCI   4
SHEBOYGAN      CLOUDY    18   8  65 N9        30.42R WCI   7
$$

LMZ563-521-522-541>543-301100-
LAKESHORE

STATION/POSITION TIME  TEMP    WIND        PRES    VSBY  WAVE
                       AIR SEA DIR/SP/G                  HT/PER
                 (UTC) (F)     (DEG/KT/KT) (MB)    (MI)  (FT/S)
SHEBOYGAN LKSHOR 1000   20     360/ 17/ 20 1031.7R
KEWAUNEE LKSHORE 1000   16     340/ 10/ 15 1029.7R
NORTHPORT PIER   1000   16     330/ 17/ 22 1030.1R
SISTER BAY LKSHO 1000   14     360/ 21/ 26   N/A
CHAMBERS ISLAND  1000   14     320/ 18/ 21 1030.5R
MENOMINEE LKSHOR 1000   15     320/ 14     1031.2R
$$


USA.gov is the U.S. government's official web portal to all federal, state and local government web resources and services.